Wind_Speed
26 27 27 25 25 25 26 25 24 22 20 19 20 19 19 18 18 18 17 17 17 17 18 17 16 16 16 14 14 15 14 12 10 10 12 12 11 10 9 7 7 8 7 7 6 6 6 6 6 6 7 9 8 7 6 5 7 8 7 7 7 7 7 7 6 8 10 10 11 13 14 15 16 15 16 17 17 18 18 17 17 17 17 17 18
28 27 26 26 26 24 25 25 24 23 21 20 20 20 19 19 19 18 18 18 18 17 17 18 17 17 17 16 16 15 14 13 12 12 12 12 11 10 10 9 9 9 9 8 7 6 7 7 7 7 7 7 6 6 6 6 7 8 8 7 7 7 7 8 7 7 10 12 13 14 15 16 16 15 16 18 19 20 19 17 17 16 15 15 15
28 28 26 25 25 25 24 24 23 22 22 22 21 21 20 19 18 18 18 18 18 17 17 17 17 17 17 17 17 16 15 13 13 14 13 13 12 11 11 11 11 10 10 10 9 7 7 8 7 7 7 7 8 8 7 6 6 8 8 8 8 7 6 8 8 8 9 12 13 15 15 16 16 17 17 18 18 19 18 16 16 15 13 14 16
28 28 28 26 25 24 25 25 24 23 21 21 22 20 20 20 19 18 18 18 18 18 18 18 18 17 16 16 16 16 16 15 15 14 14 13 13 11 10 11 12 11 10 10 9 8 9 9 8 8 8 9 10 9 7 6 7 7 7 7 6 7 6 7 8 8 9 11 13 14 15 16 17 18 17 18 19 17 15 14 14 14 14 16 21
28 28 28 28 26 25 26 26 26 25 23 21 22 20 19 20 20 20 19 19 19 18 18 18 19 18 17 16 15 15 16 16 16 16 15 14 13 12 11 10 11 10 9 9 9 9 10 11 10 10 10 11 12 11 10 9 8 7 7 7 7 8 8 8 9 9 9 10 12 15 16 18 18 17 17 20 20 16 13 14 15 17 19 21 24
29 29 29 29 29 27 27 27 27 26 25 23 23 22 21 21 21 21 20 20 20 19 18 18 18 19 18 17 16 16 16 17 17 16 15 15 14 13 12 11 11 11 10 9 9 10 11 11 12 12 12 13 14 14 13 12 11 10 10 9 8 9 9 9 10 10 10 10 12 15 17 18 18 18 18 19 18 15 15 18 19 20 21 24 24
30 30 29 30 30 29 29 29 27 26 25 24 23 22 22 22 22 21 20 20 21 20 20 20 19 19 19 18 18 16 15 16 16 16 16 15 14 14 14 13 13 12 11 11 11 12 12 12 13 14 14 15 17 17 16 15 14 13 12 11 11 11 11 10 10 10 10 11 13 15 17 18 19 19 19 18 16 14 16 19 22 23 24 24 25
32 31 31 31 30 29 29 29 28 26 24 23 23 22 23 23 22 21 21 20 21 21 20 20 20 20 19 19 19 17 16 16 15 15 15 15 15 14 13 12 13 13 13 13 13 13 14 14 15 15 14 14 14 15 16 16 16 16 15 14 13 12 12 11 10 10 10 12 14 15 17 18 19 19 19 18 17 16 15 16 19 24 26 25 24
33 33 32 32 31 29 28 27 26 26 25 24 23 23 23 24 23 23 23 22 22 22 21 20 20 21 18 18 20 19 17 16 15 15 15 14 15 15 14 12 12 12 13 13 14 14 14 13 12 11 10 10 11 11 11 13 16 18 19 17 15 14 14 13 11 12 12 13 15 16 16 17 18 19 19 18 17 16 15 16 19 22 25 26 24
33 34 34 33 32 30 29 28 26 25 25 25 25 25 24 25 26 26 25 24 24 24 22 21 21 21 18 18 21 20 18 16 16 16 16 16 15 15 15 14 13 12 11 10 11 12 11 9 9 10 9 9 9 9 9 9 9 12 17 18 17 15 14 13 12 12 12 13 14 15 14 16 18 18 17 17 15 14 16 19 20 21 23 25 23
31 33 34 34 33 31 30 28 27 27 25 23 24 26 24 22 25 28 28 27 26 25 23 22 22 21 20 19 20 20 19 17 17 17 18 18 18 17 16 16 15 14 13 10 8 8 7 7 8 9 9 7 6 5 6 5 5 6 10 14 15 14 13 12 12 11 11 12 13 13 13 16 17 17 16 16 14 15 17 17 17 19 19 19 19
31 32 33 32 31 32 30 28 27 25 21 18 20 23 22 19 20 24 27 27 27 25 23 23 22 21 21 21 20 20 20 19 18 19 19 19 19 19 18 17 16 15 15 12 10 8 9 8 8 8 7 6 6 6 5 5 5 5 7 9 11 12 12 12 11 10 11 12 13 12 13 14 14 14 14 13 13 14 15 14 15 17 17 16 16
20 21 24 23 24 26 27 27 27 25 21 17 16 18 19 18 18 19 22 25 25 24 23 23 23 23 22 21 20 20 21 21 21 21 20 19 19 19 19 18 17 15 14 13 12 11 10 9 8 8 7 7 7 7 7 6 6 7 8 9 10 11 11 11 10 10 11 11 11 10 10 11 12 13 12 11 13 14 15 17 17 17 17 16 17
13 13 15 17 17 18 19 18 16 15 17 18 19 19 19 19 18 17 17 19 21 21 21 21 22 22 22 20 20 21 21 21 21 21 21 20 19 19 19 18 17 14 12 13 13 12 10 9 8 8 8 8 8 8 8 8 8 8 8 8 8 8 8 8 8 8 7 7 7 8 8 9 11 13 12 12 13 15 16 18 16 14 14 14 14
20 16 16 18 18 16 16 15 11 5 3 7 12 15 16 18 18 17 16 16 17 18 19 19 20 20 20 20 20 20 20 20 19 19 19 18 17 17 17 16 15 14 13 12 12 11 10 9 9 8 8 8 8 8 8 8 8 8 8 7 6 5 5 5 5 6 6 7 8 9 10 11 12 13 12 11 12 13 14 14 12 12 12 12 13
18 17 16 16 15 13 14 16 16 12 8 8 8 8 10 15 16 16 15 16 16 16 17 18 18 19 19 19 19 19 18 17 17 15 15 14 14 14 14 15 15 14 13 12 11 10 9 9 8 8 8 8 8 8 8 8 8 8 8 7 5 4 5 5 6 6 8 9 10 12 12 12 11 11 10 10 9 10 10 10 11 12 12 13 14
8 11 12 10 9 11 13 14 13 15 17 18 15 11 12 14 14 13 12 13 15 16 16 15 15 16 17 18 18 17 17 16 15 14 13 12 12 12 13 13 13 13 11 10 9 8 8 8 8 8 8 8 7 7 7 7 7 8 8 7 6 5 5 7 8 9 10 11 12 11 10 9 8 8 8 7 6 8 10 12 13 14 14 13 12
5 6 7 6 6 9 13 13 11 12 16 18 18 16 16 17 16 13 11 12 14 14 14 14 13 13 14 15 14 14 14 14 13 13 12 12 12 12 12 11 11 10 9 8 8 8 7 7 7 7 7 6 6 6 6 6 6 7 7 7 6 4 5 6 8 8 8 7 5 4 4 4 6 7 7 7 7 9 12 14 14 13 14 13 12
8 8 7 7 8 9 11 12 12 12 13 15 17 18 17 15 12 12 12 13 13 13 12 12 11 10 10 11 11 11 11 10 9 10 10 11 11 11 11 10 10 9 9 9 9 8 8 7 5 4 4 3 3 3 4 5 5 6 6 5 4 3 3 4 5 4 3 3 5 6 6 6 7 7 8 9 10 10 11 12 12 12 12 12 13
8 8 8 9 11 11 10 10 11 12 14 16 19 20 18 13 9 8 9 10 12 12 11 10 10 10 9 8 8 8 8 7 6 6 7 9 11 11 10 11 12 11 11 12 11 10 9 8 5 4 2 1 0 1 2 3 4 4 4 4 3 2 1 2 3 3 4 6 8 8 8 7 7 7 8 10 11 11 11 10 11 13 13 13 14
9 9 9 11 13 11 10 9 10 11 13 15 18 17 14 12 10 9 8 8 9 9 9 9 10 10 9 8 7 7 7 6 6 5 5 8 10 11 11 12 13 13 13 13 11 10 10 9 8 7 5 4 2 1 1 1 1 1 1 1 0 1 2 3 4 4 5 6 7 7 7 7 7 8 10 12 12 12 11 10 11 13 15 15 15
14 16 17 16 13 11 11 11 12 12 11 13 13 11 9 10 11 10 10 9 8 8 9 9 10 10 11 11 12 14 14 12 10 8 6 6 6 8 11 11 10 10 11 9 8 8 9 8 8 7 6 4 3 2 2 2 1 1 1 2 2 3 3 3 4 5 5 6 6 7 8 9 10 11 12 13 13 12 11 11 12 13 14 14 14
17 21 23 22 19 16 15 15 15 15 13 13 13 10 8 9 10 11 11 10 10 11 11 12 14 15 14 14 15 16 17 16 14 12 11 9 8 7 7 7 7 9 11 11 10 9 7 5 5 6 5 3 2 2 3 2 2 2 2 3 4 4 2 4 5 5 5 6 7 9 11 11 12 13 14 14 13 12 12 13 13 13 13 13 11
17 19 20 21 20 19 18 18 18 17 16 15 14 13 11 10 10 11 12 12 12 13 14 15 17 16 14 14 15 16 17 17 14 13 13 12 12 11 10 9 9 9 11 10 8 6 5 4 3 3 2 2 1 1 1 1 1 1 1 2 3 3 3 6 5 4 6 8 10 12 12 12 13 13 13 13 13 13 14 13 12 12 12 10 9
15 15 15 16 16 17 18 18 16 15 15 15 15 14 12 12 11 10 11 12 10 10 11 13 14 15 15 15 15 16 16 16 14 13 12 11 11 10 10 10 10 10 9 8 7 5 5 4 2 1 1 1 1 1 1 1 1 2 3 3 2 2 5 7 6 6 9 11 12 12 12 12 11 10 10 11 13 14 14 14 13 13 12 10 8
13 13 12 11 10 12 13 12 11 10 11 11 11 12 12 13 14 13 12 12 11 10 11 12 13 14 15 15 15 15 15 14 13 12 11 9 9 8 7 7 7 7 7 7 6 5 4 3 2 2 3 3 2 1 1 1 0 1 3 5 8 9 10 10 9 10 12 12 12 12 12 10 9 8 8 11 13 13 14 15 15 16 16 14 12
11 11 11 10 8 8 8 8 7 7 7 8 8 9 9 11 13 13 12 12 12 12 11 12 15 16 15 14 14 14 13 12 10 9 8 7 7 6 5 5 6 7 7 7 6 5 6 5 4 4 6 7 6 6 8 10 10 12 13 14 15 15 13 12 12 13 13 12 11 11 10 10 10 10 11 12 12 13 14 15 15 16 16 15 15
7 8 9 10 7 6 7 8 6 5 5 8 10 11 11 12 13 13 12 11 11 11 11 13 17 20 18 16 15 15 13 11 9 7 7 6 6 5 5 5 7 8 8 8 7 6 7 7 7 8 11 14 15 16 17 18 17 17 16 15 14 14 13 12 12 13 12 11 10 10 10 11 11 12 12 11 12 13 13 13 14 15 15 15 16
6 7 7 6 6 7 9 10 10 9 9 11 12 13 13 14 14 14 13 12 11 10 10 13 17 19 18 16 14 13 12 10 8 7 6 6 6 6 6 6 6 7 7 7 7 5 6 8 10 12 13 14 16 18 18 18 17 17 16 15 13 13 12 12 12 13 12 11 11 11 10 10 10 11 11 12 12 13 13 14 14 15 15 15 17
7 7 6 6 8 10 11 13 14 15 15 14 13 13 13 12 12 12 12 12 11 9 9 11 12 13 13 12 11 10 9 8 7 6 5 5 5 5 5 5 4 5 5 6 6 5 7 10 12 13 13 12 14 16 17 17 17 16 15 15 14 13 13 13 13 12 12 11 10 10 10 10 10 10 11 12 12 13 13 14 15 15 16 17 18
9 8 8 9 10 11 12 14 15 16 15 14 14 13 13 11 10 10 10 10 10 10 10 11 10 8 7 8 8 8 7 6 5 5 4 3 3 3 2 2 3 3 4 5 4 5 8 10 10 11 13 14 14 14 15 15 15 15 14 14 14 13 13 13 13 12 12 11 10 10 11 11 11 11 11 12 13 12 12 13 14 15 16 17 18
7 7 9 10 9 10 12 14 14 13 12 12 12 11 11 11 11 11 11 10 11 10 10 10 10 9 8 8 8 8 7 6 5 4 4 3 2 2 2 3 3 3 4 4 5 6 9 10 9 11 14 15 15 14 13 13 13 13 12 12 13 12 12 12 11 10 10 9 10 11 11 11 12 12 13 13 13 13 13 14 15 16 16 17 17
7 7 9 9 9 10 12 12 11 11 11 10 10 9 9 10 11 11 10 10 10 10 10 11 11 11 12 12 11 9 8 8 7 6 6 6 6 5 3 2 2 4 5 5 5 6 9 12 13 13 14 14 14 13 13 12 12 11 12 12 12 11 10 10 9 8 8 8 9 11 11 11 12 12 13 13 13 13 14 15 16 16 17 17 17
9 9 9 10 9 10 12 12 11 11 10 9 8 7 7 8 9 9 9 8 8 8 9 10 10 11 12 12 10 9 9 8 8 8 8 9 9 8 6 4 5 7 7 6 7 10 12 13 13 13 13 13 12 12 12 12 11 11 11 11 10 10 9 8 8 8 8 8 9 11 11 12 12 12 13 13 14 14 15 16 17 17 17 17 17
11 9 9 10 10 11 12 13 13 12 11 9 7 7 7 8 8 8 8 7 7 6 7 8 8 8 9 9 9 9 9 9 8 8 9 10 10 9 8 10 11 12 11 11 13 14 14 13 14 14 14 13 13 12 11 10 9 9 8 8 9 9 8 8 9 9 9 9 10 11 12 12 13 13 13 14 15 16 16 17 17 17 17 17 17
10 10 9 9 10 10 11 12 11 11 10 10 9 7 7 7 6 6 6 5 5 6 7 7 7 6 7 7 7 8 9 8 9 9 10 11 11 9 10 13 14 15 15 16 15 15 14 14 13 13 13 13 12 11 11 10 10 9 9 9 9 9 10 10 10 10 10 10 11 11 12 13 13 14 14 14 16 16 16 17 18 17 17 17 17
9 9 8 8 9 9 9 9 8 7 7 7 6 7 7 6 5 4 4 4 5 6 8 8 7 6 6 6 6 7 7 7 8 7 8 9 10 10 11 12 12 12 13 13 13 13 13 13 12 12 12 11 11 10 10 10 10 10 10 10 10 11 11 11 10 10 10 11 12 12 12 13 13 14 14 15 16 16 17 18 18 17 17 16 16
7 8 8 8 8 8 7 6 5 5 6 6 5 5 5 6 6 5 5 4 3 4 7 9 9 8 7 7 7 7 6 6 5 5 5 6 7 8 8 9 9 9 9 9 9 9 10 11 10 10 10 10 10 10 10 9 9 9 10 10 11 11 10 10 10 10 10 11 11 11 11 12 13 14 15 15 16 17 18 18 18 17 17 16 16
7 8 8 8 9 8 7 5 3 3 4 6 6 6 5 4 4 3 3 3 3 5 7 10 11 10 8 9 9 8 5 4 3 3 3 2 3 4 4 5 5 5 6 6 6 6 7 8 8 8 8 8 8 9 9 9 9 8 8 8 9 9 9 9 9 9 9 10 10 11 11 12 13 14 15 16 16 17 17 17 16 16 16 16 16
7 9 10 10 10 9 8 7 5 4 3 4 5 6 6 4 4 3 2 2 2 3 6 10 12 11 9 10 11 8 4 3 4 3 2 0 2 2 3 3 4 5 5 5 6 5 6 6 6 6 6 6 7 7 7 7 7 7 7 7 8 8 9 9 9 9 9 10 10 11 12 13 14 15 16 17 16 16 15 15 16 16 16 16 16
8 10 11 11 11 10 9 9 9 7 6 5 5 6 5 5 5 5 4 2 1 1 3 8 11 10 9 10 10 7 3 3 3 3 2 1 0 2 5 6 7 7 6 6 6 5 5 5 5 4 4 5 5 5 5 5 6 6 6 6 6 7 7 8 8 8 9 9 10 11 13 13 14 16 17 17 17 16 16 16 16 16 16 16 16
11 12 13 13 13 13 12 12 11 10 8 8 8 8 8 8 8 7 5 3 2 3 5 8 9 9 9 9 8 5 3 3 3 3 3 3 4 5 7 8 7 7 6 6 5 4 4 4 4 4 4 4 5 5 5 5 6 5 5 4 4 5 6 6 7 7 8 9 11 12 12 13 14 16 17 17 18 17 16 16 16 16 15 15 15
12 12 14 15 16 16 15 15 15 14 12 10 11 11 11 10 8 7 6 4 3 5 8 11 12 11 10 8 7 6 6 6 6 5 5 5 6 6 7 7 6 6 5 4 3 2 2 3 4 4 5 5 5 6 6 6 6 6 5 4 4 5 5 6 6 7 9 10 12 12 13 14 16 18 19 18 17 16 15 15 16 15 15 14 14
11 10 11 15 19 19 17 16 16 16 16 14 13 13 12 11 9 9 7 5 4 6 10 12 13 12 11 9 9 9 9 9 8 7 6 6 5 5 5 5 5 4 3 2 2 1 1 2 3 4 4 5 6 7 7 6 6 6 5 5 5 5 6 6 7 9 10 11 12 13 15 16 18 19 18 17 15 14 14 14 14 14 14 14 14
14 11 9 11 15 19 19 18 17 17 17 16 15 14 13 12 11 11 10 7 6 8 11 12 12 12 11 10 11 11 10 9 8 7 6 5 4 4 4 4 3 2 2 2 1 1 2 2 2 3 3 4 5 6 7 6 6 6 6 6 6 6 6 6 7 8 9 11 12 13 15 16 17 16 16 14 13 12 12 13 13 13 13 13 13
15 15 13 11 11 13 15 16 16 16 16 16 16 16 15 13 12 11 10 9 8 10 13 14 14 13 12 12 12 11 10 8 8 7 6 5 4 3 3 3 2 2 2 2 2 2 3 3 3 3 4 4 5 6 6 5 5 6 7 8 7 6 5 6 7 8 10 11 12 13 14 15 16 16 15 13 12 11 11 12 12 12 12 11 11
13 16 18 18 15 13 13 13 13 13 14 15 16 17 16 15 13 11 10 10 11 13 14 16 15 14 13 12 11 9 8 8 8 7 6 5 4 4 4 4 3 3 3 2 2 3 4 4 4 4 4 4 5 6 5 4 6 7 8 8 7 6 6 6 8 9 10 11 12 13 15 16 17 16 14 12 11 10 11 12 12 11 10 10 10
12 12 14 17 17 15 13 12 12 11 11 10 11 11 10 9 9 10 12 13 14 14 15 15 14 13 11 9 8 7 7 8 7 6 5 4 5 6 6 5 4 2 1 2 3 4 5 5 5 5 5 4 5 6 6 6 7 9 8 6 5 5 5 6 8 9 10 11 13 15 16 18 18 16 13 11 10 10 11 11 10 10 9 9 10
12 10 11 13 14 14 14 14 13 13 12 11 11 10 8 6 4 4 8 11 12 13 13 13 12 10 8 6 6 6 7 8 7 5 5 6 8 8 6 4 2 0 1 3 3 4 5 5 5 5 6 5 5 6 7 7 8 7 6 4 3 3 6 7 9 10 11 12 14 16 17 19 19 16 12 9 8 9 9 9 9 9 9 10 11
13 12 12 13 14 14 14 14 13 12 12 13 13 13 13 11 7 6 8 10 11 11 12 11 9 8 6 6 7 8 8 7 6 6 7 8 8 6 4 2 1 0 1 2 3 3 4 4 4 4 4 4 5 6 6 6 5 4 3 3 4 6 8 10 11 12 13 13 14 16 18 19 20 18 13 8 7 8 8 8 9 10 10 11 12
11 11 12 13 13 13 13 14 14 14 14 13 13 13 14 13 12 12 11 12 11 11 11 9 7 7 7 9 10 9 8 8 8 9 9 9 7 6 4 4 3 3 2 2 2 2 2 2 2 2 2 3 5 7 7 7 5 4 4 5 7 8 10 10 10 11 12 13 14 17 18 19 20 18 13 8 7 7 8 9 10 11 11 11 12
Wind_Direction
202 205 205 205 205 203 204 205 205 205 205 207 211 211 210 210 210 210 213 217 216 213 215 216 215 215 218 222 221 222 231 234 227 223 227 232 237 243 238 240 262 272 276 281 271 260 274 291 294 295 304 305 299 296 299 309 327 334 324 306 297 291 285 273 262 282 304 317 321 328 338 341 341 347 346 343 343 344 343 342 342 340 337 338 341
203 205 206 205 206 206 205 206 205 206 208 211 212 213 213 213 212 214 216 219 219 214 213 215 218 221 223 223 221 222 229 233 229 229 234 238 242 244 239 238 254 265 268 274 273 265 270 281 282 280 292 303 302 297 296 300 307 311 310 300 299 298 282 274 274 280 298 315 321 325 334 338 335 337 340 338 341 345 349 353 352 350 352 357 357
203 205 205 205 207 208 206 205 205 207 211 214 214 214 214 213 212 214 216 218 219 215 214 217 219 221 223 223 221 221 227 231 231 230 232 238 245 247 244 241 247 258 265 270 274 272 271 276 273 271 284 296 299 295 289 291 295 298 305 304 297 296 287 277 277 281 293 307 318 324 330 332 330 332 336 338 342 347 354 0 359 359 8 7 354
203 205 205 204 207 209 207 205 206 209 213 215 214 214 215 214 212 215 217 218 218 214 215 220 221 220 221 222 220 220 223 226 229 229 230 236 243 247 249 246 246 255 266 267 266 268 271 273 272 273 279 283 285 284 275 278 287 292 305 313 303 300 299 287 282 282 287 300 313 321 324 327 328 331 336 339 343 348 355 358 354 353 353 345 341
202 205 206 205 206 209 210 208 209 211 213 212 213 216 218 215 214 216 219 220 220 216 215 219 222 221 221 221 221 222 225 229 230 229 230 235 240 245 252 250 245 251 262 264 261 263 266 269 271 270 272 274 272 271 268 268 272 277 285 294 294 290 289 285 281 282 289 303 313 317 320 324 326 329 335 338 340 345 348 344 340 338 336 335 339
201 204 206 206 208 211 212 210 210 212 213 214 217 219 219 216 215 218 221 221 220 219 217 219 221 221 222 223 221 223 229 231 230 228 229 233 238 245 251 250 247 251 256 257 258 260 260 264 267 265 266 268 267 267 266 262 262 266 267 269 269 268 272 276 277 281 289 300 308 311 316 321 322 324 331 336 339 343 340 334 332 333 335 336 340
201 204 205 206 208 212 213 211 210 211 213 215 218 219 217 217 218 218 219 220 220 219 220 223 224 224 226 225 221 222 226 227 226 228 230 233 237 244 251 251 249 251 254 257 260 262 262 265 269 270 271 271 272 272 269 262 258 260 259 258 257 258 266 270 271 277 286 296 304 308 312 316 317 319 325 330 335 338 338 333 332 334 336 338 340
201 203 204 205 209 212 212 211 211 213 213 215 219 219 215 216 220 219 216 218 219 218 218 221 224 227 229 228 223 221 222 223 225 228 230 231 235 242 250 252 248 248 251 256 260 264 268 271 273 277 282 285 285 285 281 273 264 259 258 259 258 259 266 271 273 282 294 301 304 308 310 311 313 317 321 326 330 332 335 335 333 332 333 334 338
200 202 202 204 208 211 210 210 213 216 216 217 221 223 221 217 218 219 218 218 218 217 217 219 222 224 226 226 223 222 223 225 229 231 230 229 233 241 248 249 247 250 253 256 260 264 271 278 280 284 292 297 297 297 294 287 276 266 261 260 261 264 268 273 281 293 301 304 305 309 310 308 312 317 318 322 327 326 328 332 331 330 329 329 334
199 200 202 204 208 210 210 212 215 217 219 222 222 224 225 222 221 221 221 221 219 216 216 216 217 220 221 220 220 223 227 229 231 234 233 233 235 240 245 247 247 250 255 263 265 263 268 278 284 292 299 296 292 291 291 294 293 280 270 265 267 271 272 278 291 300 302 301 303 309 308 307 313 317 316 321 326 322 324 328 328 329 332 331 333
199 200 202 205 207 209 211 213 215 218 222 225 224 224 226 225 225 225 224 222 221 217 216 214 214 217 220 220 221 224 228 228 228 229 230 232 235 238 241 246 247 246 249 255 254 249 255 267 280 296 306 300 288 283 282 293 310 303 282 270 269 272 275 283 294 298 298 298 301 307 306 306 313 318 319 322 323 320 322 326 328 333 337 334 327
198 200 202 205 206 208 210 212 213 215 218 220 223 225 223 217 217 221 223 223 221 218 215 215 214 214 215 217 220 223 225 227 227 228 230 232 235 238 241 245 248 249 249 245 237 235 245 256 275 298 307 299 284 278 277 286 294 295 290 280 278 279 278 280 287 292 295 295 296 301 305 308 314 322 327 325 318 316 317 319 324 329 329 323 314
187 193 196 201 206 208 211 213 212 214 217 218 220 217 209 201 201 209 215 218 218 216 216 217 216 213 213 216 222 224 224 226 229 233 237 236 235 236 240 244 247 249 245 233 228 236 244 252 266 280 284 279 278 283 288 294 296 293 294 293 293 290 281 273 275 282 287 288 290 300 310 313 317 324 330 325 315 312 312 315 321 322 319 316 312
171 177 180 190 200 205 209 210 209 215 219 218 216 211 203 198 196 195 197 201 204 206 209 211 212 212 212 215 221 223 222 224 229 234 238 240 241 241 244 244 241 237 229 222 226 237 245 253 261 265 267 268 272 283 291 296 301 302 301 298 293 289 281 273 270 272 278 286 297 308 313 315 318 321 322 318 312 312 316 320 324 322 317 315 315
182 180 178 187 193 195 198 197 193 200 228 218 217 214 207 202 198 193 186 185 189 192 194 195 197 200 202 205 211 214 215 218 222 228 234 240 242 243 242 236 227 222 220 222 228 235 242 253 260 262 265 270 276 284 290 295 296 295 294 288 282 282 283 277 272 275 286 300 307 309 311 311 313 314 313 311 313 318 320 321 324 322 319 324 330
195 192 191 196 194 189 192 196 196 200 206 214 226 231 220 212 206 198 188 184 187 189 189 190 191 191 191 195 200 203 204 207 210 214 222 227 229 231 229 222 218 219 221 223 226 232 242 251 258 263 269 274 281 288 292 294 291 288 286 278 273 276 278 275 274 277 287 296 300 303 306 307 309 314 317 318 321 327 327 328 334 334 335 340 344
203 213 212 205 191 188 197 200 201 201 202 207 219 241 250 238 224 213 202 195 196 196 196 196 195 193 191 193 199 202 202 205 208 209 212 214 214 214 213 211 212 215 217 218 223 229 239 247 253 260 266 271 279 286 289 291 289 286 284 279 276 274 265 261 264 271 283 291 298 305 310 313 322 334 342 343 347 359 0 355 352 349 344 344 341
139 202 214 204 181 186 195 196 196 202 207 211 217 233 252 252 239 228 219 211 207 204 202 199 198 199 197 196 199 204 205 206 209 210 211 211 210 209 209 209 209 209 207 206 214 223 230 238 247 254 260 271 284 289 291 289 281 276 275 276 274 261 246 257 271 282 293 301 316 339 353 8 13 15 25 32 30 24 12 1 357 352 342 335 328
133 148 166 172 172 181 188 190 195 205 217 224 225 230 241 243 233 224 218 215 212 207 203 200 196 193 196 198 200 203 204 204 207 212 214 214 213 211 210 209 206 205 204 199 199 208 221 229 232 238 256 280 293 294 288 275 265 262 261 260 255 246 255 288 312 326 353 31 44 45 53 59 50 47 51 45 33 22 11 2 3 3 351 340 335
146 150 149 140 140 149 163 178 193 204 213 220 224 227 229 225 223 221 210 203 203 201 198 194 184 175 177 184 187 189 191 190 191 201 213 218 216 216 222 225 220 211 202 194 190 193 201 204 194 174 157 121 22 311 268 254 253 247 242 244 244 251 287 28 39 41 53 59 57 58 65 67 58 47 38 27 19 15 12 12 17 21 16 7 1
130 135 134 127 125 131 141 154 174 189 199 208 218 226 230 229 229 223 203 191 187 178 169 165 162 156 153 152 139 124 124 134 147 169 199 211 213 216 222 224 217 207 200 198 195 184 173 170 165 153 133 116 105 116 167 189 211 208 224 263 286 29 55 71 73 74 77 73 68 63 57 46 34 23 15 10 10 11 13 16 17 18 18 15 11
114 110 110 114 121 134 147 153 159 168 179 192 201 213 225 226 221 209 200 197 179 151 142 144 139 129 125 123 114 104 100 104 112 123 147 173 187 199 206 206 204 201 194 185 171 152 141 145 151 140 121 114 128 162 168 155 134 101 69 61 53 35 39 80 90 94 90 74 58 46 36 27 19 14 10 9 9 7 5 5 2 1 4 7 10
107 103 107 113 120 129 138 143 146 152 163 170 169 167 174 184 185 180 179 177 160 145 144 138 125 116 114 114 111 107 103 102 102 103 107 111 118 136 163 172 170 163 149 136 131 132 129 129 129 120 116 134 172 184 178 168 143 94 76 67 38 23 52 112 106 96 79 55 47 46 40 31 23 18 16 13 8 3 359 355 353 351 348 350 2
96 94 99 108 113 119 126 131 133 135 140 143 139 132 129 134 140 147 152 150 144 142 143 135 125 124 125 122 114 109 107 106 103 98 95 97 102 106 107 107 109 114 114 110 109 111 100 83 80 97 125 166 204 233 217 188 142 105 72 32 11 18 95 115 106 87 63 51 50 49 43 34 26 21 18 13 6 358 353 352 355 355 352 353 8
99 95 97 102 107 110 114 117 116 116 119 122 119 114 110 111 114 122 134 138 137 142 147 144 137 134 133 127 118 113 114 113 109 104 99 97 97 96 92 87 79 74 74 73 67 57 45 34 29 50 60 42 329 283 251 261 286 297 316 337 10 88 116 114 102 81 65 59 56 52 43 34 28 23 15 6 360 354 353 357 2 4 4 5 10
104 100 96 98 104 109 113 114 108 105 109 112 110 107 109 115 117 119 123 122 120 130 151 163 159 147 138 132 128 126 125 120 112 107 103 97 91 85 77 71 62 49 43 46 48 45 35 31 35 30 25 14 337 283 208 178 47 55 70 84 97 104 105 101 91 81 74 68 61 51 40 30 22 15 5 1 3 5 5 4 4 5 8 6 1
102 101 96 95 104 116 122 123 118 112 115 119 118 116 118 125 128 127 124 119 114 117 134 158 162 154 146 139 133 129 126 121 115 109 102 92 86 77 58 43 33 21 18 22 24 30 39 43 45 51 64 75 82 96 110 109 103 101 99 98 96 91 88 85 82 77 73 66 56 45 34 21 9 5 4 7 13 15 11 6 6 9 11 10 9
111 111 102 96 106 128 134 137 147 158 150 135 128 124 122 124 124 120 116 116 116 116 127 147 159 160 155 146 133 124 120 118 114 108 97 88 82 71 50 32 19 11 10 11 11 19 38 51 68 89 97 97 94 95 98 99 97 95 92 88 85 82 80 78 73 68 62 54 43 32 21 13 8 9 12 17 22 22 17 14 15 16 15 16 21
133 132 120 106 109 127 141 153 168 174 160 140 129 121 116 115 113 108 103 101 102 107 119 139 153 158 156 146 134 123 118 112 105 96 83 72 65 54 43 34 22 10 4 3 2 12 39 58 76 94 102 99 93 92 92 91 89 85 81 77 74 71 67 61 56 51 43 33 27 22 19 18 19 22 24 26 27 25 20 19 20 20 20 24 26
135 128 130 140 138 135 141 153 160 160 154 147 136 123 114 109 108 106 101 98 99 103 109 120 136 146 145 138 130 120 110 101 92 81 65 49 38 30 24 19 12 4 357 355 357 17 52 67 81 94 98 97 95 94 95 94 89 82 76 71 66 62 59 54 48 39 29 25 26 27 25 23 19 19 23 28 30 26 21 22 25 27 28 28 24
134 119 119 140 150 146 142 146 149 148 146 145 140 131 122 114 105 100 98 98 101 107 110 114 117 120 123 125 121 110 99 89 79 68 56 42 25 8 353 346 345 339 338 352 18 46 55 62 78 94 99 100 101 100 99 97 92 85 78 69 61 56 54 50 42 34 33 39 40 31 24 23 24 27 34 41 42 38 31 30 30 30 30 27 22
143 127 120 129 145 154 152 149 148 147 146 147 148 144 137 128 118 108 102 99 98 102 107 112 112 105 99 98 99 99 95 89 81 70 55 41 16 335 304 300 314 325 339 9 43 54 50 58 81 102 106 106 105 102 99 95 90 85 78 68 60 53 48 43 35 31 36 43 40 34 35 40 44 48 50 51 50 45 40 35 31 27 25 23 21
173 158 140 132 136 150 157 158 159 159 158 157 157 156 150 143 136 128 118 109 102 101 103 105 105 102 98 94 91 89 86 80 74 62 47 37 28 15 352 317 348 22 25 29 49 64 70 80 94 104 106 105 103 99 94 89 84 79 72 67 62 53 46 40 35 35 42 48 47 49 52 50 49 51 50 48 46 43 37 31 26 22 21 18 15
180 176 168 159 153 151 157 162 165 167 167 168 173 177 171 159 151 145 140 134 126 120 116 114 110 104 99 96 90 83 79 76 69 57 46 40 36 37 55 79 67 52 46 52 72 85 88 91 96 99 99 99 97 94 89 86 82 78 72 66 62 57 53 50 47 50 56 58 59 58 54 49 47 46 42 38 36 33 30 26 22 20 19 14 8
169 167 167 170 167 160 158 158 157 158 158 158 164 175 180 179 175 168 163 160 158 151 140 133 127 116 107 103 97 92 89 82 72 61 50 43 43 55 72 72 61 58 63 74 86 94 95 95 97 99 98 97 95 94 93 90 86 81 78 73 69 69 68 64 63 65 67 65 63 59 53 49 47 42 37 35 33 31 28 24 19 16 13 9 4
170 164 165 171 169 163 161 162 161 159 154 147 141 143 156 175 186 189 191 197 196 183 168 158 151 140 126 116 108 105 100 89 79 71 58 47 46 53 60 61 62 69 76 81 88 93 93 93 96 98 98 98 96 94 94 92 87 85 86 85 84 82 79 75 73 72 69 65 61 54 49 46 41 36 33 31 30 28 24 17 12 9 7 5 2
187 177 172 174 173 167 162 164 170 175 175 167 155 143 138 144 153 161 176 202 220 212 195 186 181 173 159 146 133 125 116 101 88 76 59 47 42 40 46 60 73 81 82 84 89 92 91 91 93 95 95 95 93 91 90 89 86 85 85 86 86 85 84 81 76 69 64 61 56 50 47 44 38 32 28 24 21 19 14 8 5 3 3 4 2
207 197 187 183 185 185 181 182 190 202 207 206 201 184 159 145 139 135 137 148 177 203 201 198 202 205 194 175 163 153 139 119 99 82 64 49 40 39 49 68 82 88 87 88 92 95 94 93 91 91 91 89 86 84 82 81 80 80 79 82 84 84 83 79 72 65 60 56 53 48 43 40 35 28 23 19 16 11 5 3 2 0 0 1 360
224 214 201 192 192 196 199 201 204 213 218 217 213 205 188 170 159 156 151 149 165 192 202 203 208 215 208 189 181 177 166 144 129 112 87 51 29 34 55 77 89 97 102 103 101 100 100 98 94 91 89 85 80 77 73 70 71 70 68 72 77 77 75 70 64 59 54 50 47 42 35 30 25 19 15 13 10 4 360 359 0 359 356 354 352
225 215 206 200 200 206 213 210 199 184 177 180 182 183 183 187 194 194 181 157 162 196 209 210 213 220 216 199 192 190 179 155 151 142 132 142 336 16 65 105 120 124 124 121 116 111 105 99 92 85 80 75 71 68 63 59 56 55 55 60 68 71 70 66 60 55 52 46 39 31 23 17 12 7 5 5 2 357 355 354 354 353 350 346 345
225 214 208 207 209 216 220 218 212 204 196 191 192 193 195 200 202 196 187 175 141 131 193 208 214 217 208 194 190 189 178 159 155 148 149 181 207 90 106 120 128 128 126 121 117 111 105 97 87 74 67 60 54 50 46 40 37 38 42 51 62 68 69 63 56 50 44 35 26 19 14 11 6 2 359 356 350 345 344 344 344 344 343 341 341
232 225 219 218 218 221 224 223 216 209 204 206 207 203 198 194 193 191 187 184 174 161 169 182 186 180 173 174 179 187 195 195 196 194 182 164 140 121 119 122 122 121 120 115 109 102 95 85 73 59 48 40 32 28 26 25 27 30 36 44 53 59 59 55 48 39 29 21 16 11 8 6 2 357 352 346 341 338 337 338 338 339 338 337 338
237 239 237 233 229 228 231 230 223 213 208 206 201 197 197 197 197 198 198 197 191 178 172 170 168 164 163 166 169 173 180 181 177 172 163 149 133 124 121 119 116 116 116 113 106 94 72 58 53 42 31 24 18 12 11 15 18 23 31 39 43 46 44 38 30 20 11 4 1 1 1 358 353 347 343 340 337 335 334 334 335 336 335 335 336
242 254 257 249 241 237 235 234 226 218 215 214 209 204 204 203 200 198 195 191 185 179 176 175 171 165 162 160 160 162 164 163 157 154 152 148 141 129 123 120 120 121 122 117 106 79 10 11 18 16 13 7 358 352 354 359 359 2 8 15 19 22 22 18 12 7 359 354 354 355 354 349 344 340 339 338 336 333 331 331 333 334 333 333 332
245 253 260 253 245 241 237 232 225 221 222 222 217 210 208 207 201 195 188 182 176 175 178 178 173 164 160 161 164 164 163 161 160 162 163 160 153 140 132 131 129 125 120 111 92 55 15 8 2 356 357 356 349 345 347 351 354 358 360 357 358 3 7 9 7 3 360 359 359 355 350 346 343 342 341 340 335 331 330 332 332 332 329 327 325
250 247 246 242 244 246 242 235 230 230 231 226 215 204 200 198 193 188 187 187 180 172 173 175 173 168 165 164 165 167 169 171 177 182 185 185 180 161 150 150 146 131 115 97 72 43 25 19 11 359 356 358 353 348 346 350 358 358 352 349 352 1 8 9 4 1 1 1 357 354 351 349 347 345 343 341 337 334 333 334 333 330 324 319 317
259 252 248 246 245 245 241 233 226 223 222 217 207 200 197 196 195 195 198 195 182 171 169 170 171 171 169 166 166 171 179 186 191 194 195 198 203 196 183 172 154 138 120 86 38 3 349 347 350 353 357 356 353 349 348 353 354 346 337 335 338 345 351 354 352 352 353 354 354 355 356 353 349 346 343 340 338 336 335 334 330 323 318 315 315
267 258 251 246 239 232 223 212 199 189 184 181 179 175 173 177 187 194 195 191 183 175 172 171 171 173 171 168 172 184 189 190 190 189 184 188 193 188 181 173 158 143 102 5 352 343 337 330 322 321 327 338 349 351 345 338 334 327 320 315 315 322 336 347 348 348 350 352 353 354 354 353 350 347 342 338 336 333 332 329 323 316 314 314 314
264 249 235 226 218 209 201 195 191 185 178 177 177 168 149 127 124 169 189 191 189 187 186 184 182 181 180 180 189 196 194 191 191 189 187 186 182 177 174 173 172 221 336 348 349 346 344 339 329 323 323 326 331 331 325 323 322 315 304 297 306 332 348 353 352 351 350 349 349 351 352 352 351 349 341 332 331 330 326 321 316 315 314 313 313
253 241 234 231 229 226 219 215 215 213 204 199 200 195 186 184 204 232 228 216 206 198 192 187 186 190 198 201 198 193 190 191 192 185 176 172 170 169 171 173 168 105 12 12 12 7 7 11 4 349 333 322 316 313 315 326 333 321 301 309 332 341 344 343 340 340 341 341 345 351 352 351 350 348 342 333 330 330 324 315 312 313 315 314 316
254 251 249 247 244 240 231 223 222 220 216 215 218 217 213 219 235 243 231 215 202 190 183 184 190 194 192 188 186 184 180 173 166 157 152 150 151 151 150 143 131 121 104 67 49 41 41 41 33 15 337 316 315 313 314 320 325 315 307 317 326 330 331 329 328 331 336 340 345 349 350 347 346 346 344 335 325 322 317 312 311 315 319 319 318
Height
839 841 842 844 845 846 847 848 849 850 851 852 852 853 854 855 856 857 857 858 859 860 861 862 863 864 865 865 866 866 867 867 868 869 869 869 869 870 870 870 870 870 870 870 870 870 870 870 870 870 870 870 869 869 869 869 869 869 868 868 867 868 867 867 867 866 865 865 864 863 862 861 860 859 858 856 854 853 851 850 849 847 846 845 844
838 840 841 843 844 845 846 847 848 850 850 851 852 852 853 854 855 856 856 857 858 859 860 861 862 863 863 864 865 865 866 866 867 868 868 869 869 869 869 869 869 869 869 869 869 870 870 870 870 869 869 869 869 869 868 868 868 868 868 867 867 867 867 866 866 865 864 864 863 862 862 861 860 858 857 856 854 853 851 849 847 846 845 844 844
836 839 840 842 843 844 846 847 848 849 850 850 851 851 852 853 854 854 855 856 857 857 859 859 860 861 862 863 863 864 865 866 866 867 867 868 868 868 869 869 869 869 869 869 869 869 869 869 869 869 868 868 868 868 867 867 867 867 867 867 866 866 866 866 865 865 864 863 862 862 861 860 859 858 857 855 854 852 851 849 847 846 845 844 843
836 838 839 841 843 844 845 846 847 848 849 849 850 851 851 852 853 853 854 855 855 856 857 858 859 860 861 861 862 863 864 864 865 866 866 867 867 867 868 868 868 868 868 868 868 869 868 868 868 868 868 867 867 866 866 866 866 866 866 866 865 865 865 865 864 864 863 862 861 861 860 859 858 857 856 854 853 852 850 849 847 846 845 844 843
834 836 838 840 842 843 844 845 846 847 848 849 849 850 851 851 852 852 853 853 854 855 856 857 857 858 859 860 861 861 862 863 864 864 865 865 866 866 867 867 867 867 867 868 868 868 868 867 867 867 867 866 866 865 865 865 865 865 865 865 864 864 864 864 864 863 863 862 861 860 860 858 857 856 855 854 852 851 850 849 847 846 845 844 843
833 835 837 839 840 842 843 844 845 846 847 848 848 849 850 850 851 851 852 852 853 854 855 856 856 857 858 859 859 860 861 861 862 863 863 864 865 865 865 866 866 866 866 867 867 867 867 866 866 866 866 865 865 864 864 864 864 864 863 863 863 863 863 863 863 862 862 862 861 860 858 857 856 855 854 854 852 850 849 847 846 845 844 842 841
831 833 835 837 839 840 841 842 844 845 846 847 847 848 848 849 849 850 850 851 852 853 853 854 855 856 857 857 858 858 859 859 860 861 862 863 863 864 864 864 865 866 866 866 866 866 865 865 865 865 865 864 864 863 863 863 863 863 862 862 862 862 862 861 861 861 861 860 860 858 857 856 856 854 853 853 852 850 849 846 844 843 842 841 840
828 831 833 835 837 838 840 841 842 844 845 846 846 847 847 848 848 849 849 850 850 851 852 853 854 854 855 856 856 857 857 858 859 860 860 861 862 862 863 863 864 864 864 864 864 864 864 864 863 863 863 863 862 862 861 862 862 862 861 861 861 861 861 860 860 860 860 859 858 857 856 856 855 853 852 851 850 849 848 847 844 842 840 840 840
826 828 831 832 835 836 838 840 841 843 844 845 845 846 846 847 847 847 848 848 849 849 850 851 852 853 854 854 855 855 856 857 857 858 859 859 860 860 861 861 862 862 862 863 863 863 863 863 862 862 862 861 861 860 860 860 859 859 860 860 860 860 859 859 859 859 859 858 857 856 855 855 853 852 851 850 849 848 847 846 845 842 840 838 838
824 826 828 830 832 834 837 839 840 842 843 844 844 845 846 846 846 846 846 846 847 847 848 849 850 851 852 852 854 854 855 856 856 857 857 857 858 858 859 860 860 861 861 861 861 861 861 861 860 860 860 860 859 859 858 858 858 857 858 858 859 859 859 858 858 858 857 857 856 855 854 853 853 852 850 849 849 848 847 845 844 842 840 837 835
821 823 825 827 830 832 835 837 839 840 842 843 843 844 844 844 845 845 845 845 846 846 846 847 847 849 849 850 852 853 854 854 854 855 855 856 856 856 857 858 858 859 859 860 860 860 859 859 859 858 858 858 858 857 857 857 857 856 857 857 857 858 857 857 857 856 856 855 855 854 853 852 851 851 850 848 848 847 846 845 843 842 840 838 835
819 821 823 826 829 831 833 835 837 839 841 842 842 842 843 843 843 843 843 844 844 845 845 846 846 847 847 848 849 850 851 852 853 853 854 854 855 855 855 856 856 857 857 858 858 858 857 857 857 857 857 857 857 857 856 856 856 856 856 856 856 856 856 855 855 855 855 854 853 853 852 851 850 849 849 847 847 846 845 844 843 841 840 839 837
819 821 823 826 828 830 833 834 836 839 840 841 841 841 842 842 841 841 841 841 842 843 844 844 845 845 846 846 847 848 849 850 851 851 852 852 853 853 853 854 854 854 855 855 855 855 855 856 855 856 856 856 856 856 855 855 855 855 855 854 854 854 854 854 853 853 853 852 852 852 851 850 849 848 848 847 846 845 843 842 842 840 839 838 837
821 821 822 824 826 828 831 833 836 839 840 840 841 841 842 841 841 840 840 840 841 841 842 842 843 844 844 844 845 845 847 848 848 849 850 850 851 851 851 851 852 852 853 853 853 853 853 854 854 854 855 855 855 854 854 854 854 853 853 853 853 852 852 852 852 852 852 851 851 851 851 850 848 847 847 846 845 844 842 841 840 839 838 837 836
819 819 819 821 823 826 828 831 834 837 840 841 841 842 842 841 841 840 840 840 840 840 840 840 841 841 841 842 843 843 844 845 846 847 848 848 849 849 849 849 850 850 851 851 851 851 851 852 852 853 853 853 853 853 853 853 852 852 852 852 852 851 851 851 851 851 851 850 850 850 849 849 848 846 846 845 844 843 841 840 839 838 837 836 835
816 816 818 820 822 825 828 829 831 834 838 840 841 842 843 842 841 840 840 840 840 840 840 840 840 840 840 840 841 842 842 843 843 844 845 846 847 847 847 848 848 849 849 849 849 849 849 850 851 852 852 852 852 852 852 851 851 851 851 851 851 850 850 850 850 850 850 849 849 849 848 847 846 845 844 843 843 842 840 840 839 838 836 835 834
817 817 819 821 823 825 827 829 830 832 834 836 837 840 842 842 841 840 840 840 840 839 839 839 839 839 839 840 840 840 841 841 842 843 844 845 845 846 846 846 846 847 847 847 847 847 848 849 849 850 850 850 850 850 850 850 850 850 849 849 849 849 849 849 848 848 848 848 848 848 847 846 845 844 844 842 842 841 840 839 838 837 836 835 834
817 818 820 822 823 825 826 828 830 831 832 832 832 835 838 840 840 839 839 839 839 838 838 838 838 838 838 839 839 839 840 840 841 841 842 843 844 844 845 845 845 846 846 846 846 846 846 847 848 848 848 848 848 848 849 849 849 848 848 848 848 847 847 847 847 847 847 847 846 846 846 845 845 844 843 842 841 840 840 839 838 837 836 835 834
817 818 820 821 822 823 825 827 828 830 831 830 830 831 834 837 838 837 837 837 837 838 837 837 837 837 838 838 838 838 839 839 840 840 841 841 842 842 843 844 844 844 844 844 844 845 845 846 846 846 847 847 847 847 847 847 847 846 846 846 846 846 846 845 845 845 845 845 845 844 844 844 844 843 843 842 841 840 839 839 837 836 836 835 834
816 818 820 821 822 823 824 825 826 827 828 828 829 830 832 834 836 837 836 836 836 836 836 836 836 837 837 838 838 838 838 838 839 839 839 840 840 841 842 842 842 842 841 841 842 842 843 844 844 845 845 845 846 846 846 846 846 845 845 844 844 844 844 844 844 844 844 844 843 843 843 843 843 843 842 841 841 840 839 838 837 836 835 835 834
815 817 820 822 823 824 825 826 827 827 828 829 830 832 832 833 835 836 837 836 836 835 836 835 836 836 836 837 838 838 837 837 838 838 838 838 838 839 840 840 839 839 839 839 840 841 841 841 842 842 843 844 844 845 845 845 845 845 844 844 844 843 843 843 843 843 843 843 843 842 842 842 842 842 841 841 840 840 839 838 837 837 836 835 834
820 820 822 823 824 824 824 825 826 827 829 830 831 833 833 834 835 835 836 836 836 836 836 835 835 836 836 836 837 837 837 837 837 838 838 838 838 838 839 838 838 837 837 838 839 840 840 841 841 841 842 842 843 844 844 844 844 844 844 844 844 843 843 843 843 842 842 842 842 842 842 842 842 841 841 840 840 839 839 838 837 837 836 835 835
824 824 825 826 827 826 825 825 826 828 830 832 832 832 833 833 834 834 835 835 835 835 836 835 835 837 838 838 838 838 837 837 838 839 838 838 838 838 838 838 838 838 837 838 839 840 840 842 842 841 841 842 842 843 843 843 843 843 844 844 844 843 843 843 843 842 842 842 841 841 841 841 841 841 841 840 840 839 838 837 837 836 835 835 835
826 826 826 827 828 828 828 828 829 830 831 832 832 832 832 832 833 834 835 835 835 836 837 837 837 838 840 841 840 839 839 839 840 841 840 840 840 840 840 840 840 840 839 841 842 842 842 843 843 842 841 841 841 841 842 842 843 843 843 842 842 842 842 843 843 843 842 842 841 841 841 842 841 841 841 840 839 839 838 837 836 835 834 834 834
827 827 828 828 829 829 829 830 831 831 832 832 832 832 832 832 833 834 834 834 835 837 838 839 839 840 842 842 841 841 841 842 842 842 841 841 842 842 841 841 841 842 842 842 843 842 842 843 842 842 841 840 840 840 841 842 842 841 841 841 841 841 842 842 843 843 842 843 842 842 842 842 842 841 841 840 839 838 837 836 835 834 834 833 832
828 828 829 830 830 830 830 831 832 833 833 832 832 832 832 832 833 834 834 834 835 837 838 839 841 843 843 842 841 841 841 842 842 842 842 842 842 842 842 842 842 843 843 843 843 842 842 842 842 841 840 840 839 840 840 840 840 840 840 841 841 842 842 842 842 843 843 844 844 844 843 843 842 842 840 839 839 838 837 836 834 834 833 832 831
830 830 831 831 830 830 831 831 833 834 834 833 833 833 833 833 833 834 835 835 836 837 837 838 841 843 844 843 842 841 841 842 843 843 843 843 843 843 843 843 843 843 843 843 842 842 841 841 841 841 840 840 839 839 839 840 840 841 841 841 842 843 843 843 843 843 843 844 844 844 844 843 842 841 841 840 839 838 837 836 834 833 833 831 830
832 832 832 831 831 831 831 831 833 834 835 834 834 834 834 834 835 835 835 836 836 837 838 838 840 842 843 843 843 842 842 843 844 845 844 844 844 843 843 842 843 843 843 843 842 841 842 841 841 841 841 840 840 840 841 841 841 842 843 843 843 844 844 844 844 844 844 844 844 844 844 843 842 841 841 840 839 838 837 836 835 834 833 832 831
833 833 833 832 832 831 831 832 832 834 835 835 835 836 836 836 836 836 836 837 837 838 838 839 840 841 842 842 842 842 843 845 845 845 845 845 844 843 843 842 843 843 843 843 842 842 842 841 841 841 841 841 842 842 842 843 843 844 844 845 845 845 845 845 844 844 845 845 844 844 843 842 842 841 841 840 840 839 838 837 836 835 834 833 832
835 835 834 834 834 833 833 833 833 833 834 835 835 837 837 838 838 837 838 838 838 839 839 840 841 841 842 842 842 843 844 845 845 845 845 845 844 843 843 843 843 844 844 843 843 842 842 842 841 841 842 842 842 843 844 844 845 845 845 846 846 846 845 845 845 845 845 844 844 843 843 842 841 841 840 840 840 839 839 838 837 836 834 834 833
836 836 836 836 835 835 835 835 835 835 835 835 836 837 838 839 839 839 839 839 839 840 840 840 841 841 842 842 842 843 843 844 844 844 844 844 844 843 843 843 843 843 844 843 843 843 843 842 842 842 843 843 843 844 845 845 845 846 846 846 846 846 846 846 845 845 845 844 843 843 842 842 841 841 840 840 840 839 839 838 837 837 836 835 835
837 837 837 837 837 837 836 836 836 837 837 837 838 838 838 839 840 840 840 840 840 841 841 841 841 841 841 842 842 843 843 844 844 844 844 843 843 843 843 843 843 843 843 843 843 843 843 843 843 843 844 844 844 845 845 845 845 846 846 846 846 846 846 846 846 845 845 844 843 843 842 842 842 841 841 840 840 839 839 839 838 838 837 836 836
837 837 837 838 838 838 838 838 838 838 838 838 839 839 839 839 839 840 840 841 841 841 842 842 842 842 842 842 843 843 844 844 844 844 844 843 843 843 842 843 843 843 843 842 842 843 843 843 844 844 845 845 845 845 845 846 846 846 846 846 846 846 846 846 845 845 844 843 843 843 843 843 843 842 842 841 840 840 840 839 839 838 837 837 836
837 837 837 838 838 838 838 838 838 838 839 839 839 839 839 839 839 840 840 840 841 841 842 842 842 842 842 842 843 843 844 844 844 844 844 844 844 843 843 843 843 843 842 842 842 842 843 844 845 845 846 846 846 846 846 846 846 845 845 846 846 846 846 845 845 844 844 844 844 844 843 843 843 843 842 842 841 840 840 840 839 839 838 837 837
837 837 837 837 838 838 838 838 838 838 838 839 839 839 839 839 839 840 840 840 840 841 841 842 842 842 843 843 843 843 844 844 845 845 845 845 844 844 843 843 843 842 842 842 842 843 844 845 845 846 846 846 846 846 846 845 845 845 845 845 845 845 845 845 845 845 845 844 844 844 844 844 844 844 843 842 842 841 841 841 840 839 838 838 836
837 838 837 838 838 838 838 838 838 838 838 838 838 838 838 839 839 839 839 839 840 840 841 842 842 842 843 843 843 844 844 845 845 845 845 845 845 844 844 844 844 844 844 844 844 844 845 845 846 846 846 846 846 846 846 846 846 845 845 845 844 844 844 845 845 845 845 844 844 844 844 844 844 844 843 843 842 842 842 841 840 840 839 837 836
837 837 837 837 838 838 838 838 838 838 838 838 838 838 838 838 839 839 839 839 839 840 841 842 842 842 843 843 844 844 845 845 845 845 845 845 845 845 845 845 845 846 846 846 846 846 846 847 847 847 847 847 847 847 847 846 846 845 845 844 844 844 844 845 845 845 845 845 845 845 844 844 844 844 843 843 842 842 842 841 840 839 838 837 836
837 836 836 837 837 837 838 838 838 838 838 838 838 839 838 839 839 839 839 839 839 840 840 841 842 842 843 844 844 845 845 845 846 846 846 846 846 846 846 846 847 847 847 847 847 847 847 848 848 848 848 848 847 847 847 847 846 846 845 845 844 844 845 845 845 845 845 845 845 845 845 844 844 844 843 843 843 842 841 841 840 839 838 837 836
836 836 836 836 836 837 837 838 838 838 838 838 838 839 839 839 839 839 839 839 839 840 840 841 841 842 843 844 844 845 845 846 846 846 847 847 847 847 847 847 847 848 848 848 848 848 848 848 848 848 848 848 847 847 847 847 846 846 845 845 845 845 845 845 845 845 845 845 845 845 845 845 844 844 844 843 843 842 841 841 840 839 838 837 836
835 835 835 835 836 836 837 837 838 838 838 838 838 838 838 839 839 839 839 839 839 839 840 841 841 842 843 844 844 845 846 846 847 847 847 847 847 847 847 847 847 848 848 848 848 848 848 848 848 848 848 848 847 847 847 847 846 846 846 845 845 845 845 845 845 845 845 845 845 845 845 844 844 844 843 843 842 842 841 840 839 838 837 836 835
834 834 835 835 835 836 836 837 837 837 837 838 838 838 838 838 838 838 838 838 839 839 840 840 841 841 842 843 844 845 846 847 847 848 848 847 847 847 847 847 848 848 848 848 848 849 849 848 849 848 848 848 848 847 847 847 847 846 846 846 845 845 845 845 845 845 845 845 845 845 844 844 844 843 843 842 841 841 840 839 838 837 836 835 834
833 834 834 834 835 835 835 836 836 836 837 837 837 837 838 838 837 838 838 838 838 839 839 840 841 841 842 843 844 845 846 847 847 848 847 848 848 847 847 848 848 849 849 849 849 849 849 849 849 849 848 848 848 848 847 847 847 847 847 846 846 845 845 845 845 845 845 845 844 844 844 844 843 842 842 841 840 839 838 837 837 836 835 834 833
833 833 833 834 834 834 834 835 835 836 836 836 836 837 837 837 837 838 838 838 838 839 839 840 841 841 842 843 844 845 846 846 847 847 848 848 848 848 848 849 849 849 850 850 850 850 849 849 849 849 848 848 848 848 848 848 848 848 848 847 846 846 845 845 845 845 844 844 844 844 843 843 842 841 841 840 839 837 836 836 835 834 833 833 832
832 832 833 833 833 833 834 834 834 835 835 835 836 836 836 836 837 837 837 837 838 838 839 840 840 841 842 843 844 844 845 846 847 847 848 848 848 848 849 849 849 850 850 850 850 850 849 849 849 849 849 849 848 848 848 848 848 848 848 847 847 846 845 845 844 844 844 844 843 843 842 842 841 840 839 838 837 836 835 834 834 833 832 831 831
831 832 832 832 832 833 833 833 833 834 834 834 835 835 835 835 836 836 836 837 838 838 839 840 841 842 842 843 844 845 845 846 847 847 847 848 848 848 849 849 849 849 849 849 850 850 849 850 850 849 849 849 848 848 848 848 847 847 847 847 846 846 845 845 845 844 844 843 843 842 842 841 840 839 838 837 836 835 834 833 833 832 831 830 830
830 830 830 830 831 831 831 832 832 833 833 834 834 834 834 835 835 836 836 836 837 838 839 840 841 842 842 843 844 844 845 846 847 847 847 847 848 848 848 849 849 849 849 849 849 849 849 850 849 849 849 848 848 848 848 847 847 847 847 847 846 846 845 845 844 844 843 843 842 842 841 840 839 838 837 836 835 834 833 832 832 831 830 829 829
828 828 828 829 829 829 830 830 830 831 831 832 832 833 833 834 835 835 836 836 836 837 838 839 840 841 841 842 843 844 845 846 846 846 847 847 847 848 848 848 848 849 849 849 849 849 849 849 849 849 849 848 847 847 847 847 846 846 846 846 846 846 845 845 844 844 843 843 842 841 840 839 838 837 836 835 834 833 832 832 831 830 830 829 828
825 826 826 826 827 828 828 828 829 829 830 831 832 833 833 834 834 834 835 836 836 837 837 838 839 840 841 842 843 843 844 844 845 845 846 846 846 847 847 847 848 848 848 848 849 849 848 848 848 848 848 847 847 846 846 846 846 846 846 845 845 845 845 844 844 843 843 842 841 840 840 838 837 836 835 834 833 832 832 831 830 829 829 828 827
824 824 825 825 826 826 827 827 828 828 828 829 831 832 832 833 835 836 836 837 837 836 836 837 838 839 840 840 841 842 842 843 843 844 845 845 845 846 846 847 847 848 848 848 848 848 847 848 848 847 847 847 846 846 846 845 845 845 845 845 845 845 844 844 843 843 842 842 841 840 839 837 836 835 834 833 832 831 831 830 829 829 828 827 826
823 823 824 824 825 825 826 826 827 827 827 828 829 830 831 832 834 836 837 837 837 836 836 836 837 838 838 839 839 840 841 842 842 843 843 844 844 845 845 846 846 847 847 847 847 847 847 847 846 846 846 846 846 846 845 845 845 845 845 845 844 844 844 843 843 842 841 841 840 839 837 836 835 834 832 832 831 830 830 829 828 828 827 826 825
821 822 822 822 823 823 824 824 825 826 827 827 828 829 830 831 832 833 834 835 835 835 836 836 836 836 837 837 838 839 840 841 842 842 843 843 844 844 845 845 845 846 846 846 846 846 846 846 845 845 846 845 845 845 845 845 845 844 844 844 844 843 843 843 842 841 840 839 838 837 836 835 834 832 831 830 830 830 829 828 827 826 826 825 824